When you browse on this site, cookies collect data to enhance your experience and personalize the content and advertising you see.
Visit our Privacy Policy to learn more. By continuing to use the site, you agree to this use of cookies and data.
  • In Denmark
  • List of Countries
  • For 7 days
  • Water Temperature
  • Weather Map
  • Weather Widgets
  • user-avatar
    Login

    Hourly Weather Luschevinka

    Today, 29 February, Saturday

    Time Temperature Precipitation Wind Pressure Humidity
    00:00 -3°C° 0 mm 4 mps 740 mmHg 80%
    01:00 -3°C° 0 mm 4 mps 740 mmHg 82%
    02:00 -2°C° 0 mm 3 mps 741 mmHg 83%
    03:00 -2°C° 0 mm 3 mps 741 mmHg 85%
    04:00 -2°C° 0 mm 3 mps 741 mmHg 87%
    05:00 -2°C° 0 mm 3 mps 741 mmHg 89%
    06:00 -2°C° 0 mm 3 mps 741 mmHg 87%
    07:00 -3°C° 0 mm 4 mps 741 mmHg 86%
    08:00 -3°C° 0 mm 4 mps 741 mmHg 84%
    09:00 -2°C° 0 mm 4 mps 741 mmHg 80%
    10:00 -1°C° 0 mm 5 mps 741 mmHg 76%
    11:00 0°C° 0 mm 5 mps 741 mmHg 71%
    12:00 0°C° 0 mm 5 mps 741 mmHg 73%
    13:00 0°C° 0 mm 5 mps 741 mmHg 74%
    14:00 0°C° 0 mm 5 mps 742 mmHg 76%
    15:00 -1°C° 0 mm 5 mps 742 mmHg 76%
    16:00 -1°C° 0 mm 4 mps 742 mmHg 76%
    17:00 0°C° 0 mm 3 mps 742 mmHg 76%
    18:00 0°C° 0 mm 3 mps 742 mmHg 76%
    19:00 0°C° 0 mm 3 mps 743 mmHg 77%
    20:00 0°C° 0 mm 3 mps 743 mmHg 77%
    21:00 -1°C° 0 mm 3 mps 743 mmHg 80%
    22:00 -1°C° 0 mm 3 mps 743 mmHg 83%
    23:00 -1°C° 0 mm 3 mps 743 mmHg 85%

    Tomorrow, 1 March, Sunday

    Time Temperature Precipitation Wind Pressure Humidity
    00:00 -3°C° 0 mm 4 mps 743 mmHg 85%
    01:00 -3°C° 0 mm 4 mps 743 mmHg 84%
    02:00 -3°C° 0 mm 4 mps 743 mmHg 84%
    03:00 -3°C° 0 mm 4 mps 743 mmHg 83%
    04:00 -2°C° 0 mm 5 mps 743 mmHg 82%
    05:00 -2°C° 0 mm 5 mps 742 mmHg 81%
    06:00 -3°C° 0 mm 6 mps 742 mmHg 78%
    07:00 -2°C° 0 mm 6 mps 742 mmHg 74%
    08:00 -2°C° 0 mm 6 mps 742 mmHg 70%
    09:00 -1°C° 0 mm 7 mps 742 mmHg 68%
    10:00 0°C° 0 mm 7 mps 742 mmHg 65%
    11:00 +1°C° 0 mm 8 mps 741 mmHg 63%
    12:00 +1°C° 0 mm 8 mps 741 mmHg 61%
    13:00 +2°C° 0 mm 8 mps 741 mmHg 58%
    14:00 +4°C° 0 mm 8 mps 741 mmHg 56%
    15:00 +3°C° 0 mm 7 mps 741 mmHg 61%
    16:00 +3°C° 0 mm 6 mps 741 mmHg 65%
    17:00 +2°C° 0 mm 5 mps 741 mmHg 69%
    18:00 +1°C° 0 mm 5 mps 741 mmHg 72%
    19:00 +1°C° 0 mm 5 mps 741 mmHg 74%
    20:00 +1°C° 0 mm 5 mps 741 mmHg 77%
    21:00 +1°C° 0.1 mm 5 mps 741 mmHg 81%
    22:00 +1°C° 0.1 mm 4 mps 741 mmHg 86%
    23:00 +1°C° 0.1 mm 4 mps 741 mmHg 90%

    Day after tomorrow, 2 March, Monday

    Time Temperature Precipitation Wind Pressure Humidity
    00:00 +1°C° 0.1 mm 4 mps 741 mmHg 90%
    01:00 +1°C° 0.1 mm 5 mps 741 mmHg 90%
    02:00 +1°C° 0.1 mm 6 mps 741 mmHg 91%
    03:00 +2°C° 0.3 mm 6 mps 740 mmHg 91%
    04:00 +2°C° 0.3 mm 6 mps 740 mmHg 92%
    05:00 +2°C° 0.3 mm 6 mps 740 mmHg 93%
    06:00 +2°C° 0.3 mm 6 mps 740 mmHg 93%
    07:00 +2°C° 0.3 mm 6 mps 740 mmHg 93%
    08:00 +1°C° 0.3 mm 6 mps 740 mmHg 92%
    09:00 +2°C° 0.1 mm 5 mps 740 mmHg 90%
    10:00 +2°C° 0.1 mm 5 mps 740 mmHg 87%
    11:00 +3°C° 0.1 mm 5 mps 740 mmHg 84%
    12:00 +3°C° 0 mm 5 mps 740 mmHg 84%
    13:00 +3°C° 0 mm 5 mps 740 mmHg 83%
    14:00 +3°C° 0 mm 5 mps 740 mmHg 83%
    15:00 +3°C° 0 mm 5 mps 740 mmHg 81%
    16:00 +3°C° 0 mm 5 mps 740 mmHg 80%
    17:00 +3°C° 0 mm 5 mps 739 mmHg 79%
    18:00 +2°C° 0 mm 6 mps 739 mmHg 83%
    19:00 +2°C° 0 mm 7 mps 739 mmHg 88%
    20:00 0°C° 0 mm 7 mps 739 mmHg 92%
    21:00 0°C° 0.3 mm 7 mps 739 mmHg 93%
    22:00 -1°C° 0.3 mm 7 mps 738 mmHg 94%
    23:00 -1°C° 0.3 mm 7 mps 738 mmHg 95%

    3 March, Tuesday

    Time Temperature Precipitation Wind Pressure Humidity
    00:00 0°C° 0.6 mm 7 mps 738 mmHg 95%
    01:00 +1°C° 0.6 mm 6 mps 737 mmHg 94%
    02:00 +2°C° 0.6 mm 6 mps 737 mmHg 94%
    03:00 +2°C° 0.6 mm 6 mps 737 mmHg 94%
    04:00 +2°C° 0.6 mm 5 mps 737 mmHg 94%
    05:00 +3°C° 0.6 mm 5 mps 737 mmHg 94%
    06:00 +3°C° 0.1 mm 5 mps 737 mmHg 92%
    07:00 +3°C° 0.1 mm 5 mps 738 mmHg 90%
    08:00 +3°C° 0.1 mm 5 mps 738 mmHg 88%
    09:00 +5°C° 0 mm 5 mps 739 mmHg 83%
    10:00 +6°C° 0 mm 5 mps 740 mmHg 78%
    11:00 +6°C° 0 mm 5 mps 740 mmHg 73%
    12:00 +7°C° 0 mm 5 mps 740 mmHg 69%
    13:00 +8°C° 0 mm 4 mps 741 mmHg 65%
    14:00 +10°C° 0 mm 4 mps 741 mmHg 61%
    15:00 +9°C° 0 mm 3 mps 741 mmHg 65%
    16:00 +9°C° 0 mm 3 mps 741 mmHg 68%
    17:00 +8°C° 0 mm 2 mps 741 mmHg 71%
    18:00 +8°C° 0 mm 3 mps 741 mmHg 75%
    19:00 +7°C° 0 mm 3 mps 741 mmHg 79%
    20:00 +6°C° 0 mm 4 mps 741 mmHg 83%
    21:00 +6°C° 0 mm 4 mps 741 mmHg 85%
    22:00 +6°C° 0 mm 4 mps 741 mmHg 87%
    23:00 +6°C° 0 mm 4 mps 741 mmHg 90%

    4 March, Wednesday

    Time Temperature Precipitation Wind Pressure Humidity
    00:00 +6°C° 0 mm 4 mps 741 mmHg 90%
    01:00 +5°C° 0 mm 5 mps 741 mmHg 90%
    02:00 +5°C° 0 mm 5 mps 741 mmHg 91%
    03:00 +5°C° 0 mm 5 mps 740 mmHg 91%
    04:00 +5°C° 0 mm 5 mps 740 mmHg 92%
    05:00 +5°C° 0 mm 5 mps 740 mmHg 92%
    06:00 +6°C° 0 mm 5 mps 739 mmHg 92%
    07:00 +6°C° 0 mm 5 mps 739 mmHg 91%
    08:00 +6°C° 0 mm 5 mps 739 mmHg 90%
    09:00 +7°C° 0 mm 5 mps 739 mmHg 87%
    10:00 +7°C° 0 mm 6 mps 739 mmHg 84%
    11:00 +8°C° 0 mm 6 mps 739 mmHg 81%
    12:00 +8°C° 0 mm 6 mps 739 mmHg 80%
    13:00 +9°C° 0 mm 6 mps 738 mmHg 79%
    14:00 +9°C° 0 mm 6 mps 738 mmHg 78%
    15:00 +9°C° 0.1 mm 6 mps 738 mmHg 77%
    16:00 +9°C° 0.1 mm 5 mps 738 mmHg 75%
    17:00 +9°C° 0.1 mm 5 mps 738 mmHg 74%
    18:00 +9°C° 0 mm 6 mps 738 mmHg 73%
    19:00 +9°C° 0 mm 6 mps 738 mmHg 72%
    20:00 +9°C° 0 mm 6 mps 737 mmHg 71%
    21:00 +9°C° 0 mm 6 mps 737 mmHg 71%
    22:00 +8°C° 0 mm 6 mps 737 mmHg 71%
    23:00 +8°C° 0 mm 6 mps 737 mmHg 71%

    5 March, Thursday

    Time Temperature Precipitation Wind Pressure Humidity
    00:00 +8°C° 0 mm 6 mps 736 mmHg 72%
    01:00 +8°C° 0 mm 6 mps 736 mmHg 73%
    02:00 +7°C° 0 mm 6 mps 736 mmHg 74%
    03:00 +7°C° 0 mm 6 mps 736 mmHg 76%
    04:00 +7°C° 0 mm 6 mps 736 mmHg 78%
    05:00 +5°C° 0 mm 6 mps 736 mmHg 80%
    06:00 +5°C° 0 mm 6 mps 736 mmHg 81%
    07:00 +5°C° 0 mm 6 mps 736 mmHg 82%
    08:00 +5°C° 0 mm 6 mps 736 mmHg 83%
    09:00 +5°C° 0.5 mm 6 mps 736 mmHg 85%
    10:00 +5°C° 0.5 mm 6 mps 735 mmHg 88%
    11:00 +6°C° 0.5 mm 5 mps 735 mmHg 90%
    12:00 +5°C° 0.9 mm 6 mps 735 mmHg 89%
    13:00 +5°C° 0.9 mm 6 mps 735 mmHg 87%
    14:00 +5°C° 0.9 mm 6 mps 734 mmHg 86%
    15:00 +5°C° 0.3 mm 6 mps 734 mmHg 85%
    16:00 +5°C° 0.3 mm 5 mps 734 mmHg 84%
    17:00 +5°C° 0.3 mm 4 mps 734 mmHg 84%
    18:00 +5°C° 0 mm 4 mps 735 mmHg 82%
    19:00 +4°C° 0 mm 4 mps 735 mmHg 80%
    20:00 +4°C° 0 mm 4 mps 736 mmHg 78%
    21:00 +4°C° 0 mm 4 mps 736 mmHg 80%
    22:00 +2°C° 0 mm 5 mps 736 mmHg 81%
    23:00 +2°C° 0 mm 5 mps 737 mmHg 83%
    Show more